Skip Page Navigation
NASA JPL Caltech
NASA Logo - Jet Propulsion Laboratory + View the NASA Portal
+ Center for Near-Earth Object Studies
JPL Home Earth Solar System Stars & Galaxies Technology
JPL Solar System Dynamics
BODIES ORBITS EPHEMERIDES TOOLS PHYSICAL DATA DISCOVERY FAQ SITE MAP
IMPORTANT: The SSD Announcement email list is now available. Major changes are coming in the near future, including possible hostname and/or URL changes. To be notified of such changes, subscribe to this email list.

Please visit this page for more details.


JPL Small-Body Database Browser
Search: [ help ]  
201442 (2003 EQ34)
Classification: Main-belt Asteroid          SPK-ID: 2201442
Ephemeris | Orbit Diagram | Orbital Elements | Mission Design | Physical Parameters | Discovery Circumstances | Close-Approach Data ]

[ show orbit diagram ]
Orbital Elements at Epoch 2459000.5 (2020-May-31.0) TDB
Reference: JPL 20 (heliocentric ecliptic J2000)
 Element Value Uncertainty (1-sigma)   Units 
e .1820939138276176 3.5543e-08  
a 2.277619912662758 1.0739e-08 au
q 1.86287918855428 8.3246e-08 au
i 4.013610449298578 5.4755e-06 deg
node 292.0002436675409 5.7427e-05 deg
peri 298.8351452256165 5.9418e-05 deg
M 323.3346718559879 1.5104e-05 deg
tp 2459128.371387872422
(2020-Oct-05.87138787)
5.2913e-05 TDB
period 1255.510368085709
3.44
8.8795e-06
2.431e-08
d
yr
n .2867359833506561 2.0279e-09 deg/d
Q 2.692360636771236 1.2694e-08 au
  Orbit Determination Parameters
   # obs. used (total)      414  
   data-arc span      6256 days (17.13 yr)  
   first obs. used      2003-03-07  
   last obs. used      2020-04-22  
   planetary ephem.      DE431  
   SB-pert. ephem.      SB431-N16  
   condition code      0  
   norm. resid. RMS      .56079  
   source      ORB  
   producer      Otto Matic  
   solution date      2020-May-21 07:04:52  

Additional Information
 Earth MOID = .856237 au 
 Jupiter MOID = 2.31905 au 
 T_jup = 3.582 
[ show covariance matrix ]

Ephemeris | Orbit Diagram | Orbital Elements | Mission Design | Physical Parameters | Discovery Circumstances | Close-Approach Data ]

Physical Parameter Table
Parameter Symbol Value Units Sigma Reference Notes
absolute magnitude H 16.7   n/a MPO418072  
diameter diameter 1.487 km 0.259 urn:nasa:pds:neowise_diameters_albedos::2.0[mainbelt] (http://adsabs.harvard.edu/abs/2011ApJ...741...68M)  
geometric albedo albedo 0.183   0.059 urn:nasa:pds:neowise_diameters_albedos::2.0[mainbelt] (http://adsabs.harvard.edu/abs/2011ApJ...741...68M)  

201442 (2003 EQ34)          Discovered 2003-Mar-07 by LINEAR at Socorro
Reference: 20081212/Numbers.arcLast Updated: 2008-12-12

[ show close-approach data ]
Alternate Designations
 2003 EQ34 = 2005 YX20 
Ephemeris | Orbit Diagram | Orbital Elements | Mission Design | Physical Parameters | Discovery Circumstances | Close-Approach Data ]
ABOUT SSD CREDITS/AWARDS PRIVACY/COPYRIGHT GLOSSARY LINKS
FirstGov 2020-May-26 01:09 UT
(server date/time)  
NASA Home Page
Site Manager:   Ryan S. Park
Webmaster  Alan B. Chamberlin